Location: Appleton
(44.2618°N, 88.4157°W)
Time: 11:35:55
(UTC+00:00)

S-56A Canister/Altair - Pass Details

Date: 28 February 2021
Orbit: 632 x 2500 km, 38.9° (Epoch: 18 April)

Event Time Altitude Azimuth Distance (km) Brightness Sun altitude
Rises 23:20:23 0° 266° (W) 6,132 14.6 2.8°
Reaches altitude 10° 23:24:23 10° 264° (W) 5,162 14.1 2.1°
Maximum altitude 23:39:24 70° 186° (S) 2,419 10.2 -0.6°
Drops below altitude 10° 23:51:25 10° 106° (ESE) 4,219 10.7 -2.7°
Enters shadow 23:54:19 - 104° (ESE) 4,988 11.1 -3.2°
Sets 23:54:20 0° 104° (ESE) 4,994 - -3.2°
